Weather History for KAPN - August, 2013

Change the Weather History Date:

Friday, August 30, 2013

  Actual Average Record
Temperature  
Mean Temperature 72 °F 63 °F  
Max Temperature 78 °F 75 °F 96 °F (1925)
Min Temperature 65 °F 51 °F 29 °F (1934)
Degree Days  
Heating Degree Days 0 4  
Month to date heating degree days 58 68  
Since 1 June heating degree days 247 255  
Since 1 July heating degree days 111 112  
Cooling Degree Days 7 2  
Month to date cooling degree days 99 78  
Year to date cooling degree days 305 263  
Since 1 June cooling degree days 292 250  
Growing Degree Days 23 (Base 50)    
Moisture  
Dew Point 68 °F    
Average Humidity 81    
Maximum Humidity 93    
Minimum Humidity 69    
Precipitation  
Precipitation 0.53 in 0.11 in 1.95 in (1955)
Month to date precipitation 1.58 3.12  
Year to date precipitation 22.07 18.67  
Sea Level Pressure  
Sea Level Pressure 29.81 in    
Wind  
Wind Speed 7 mph (West)    
Max Wind Speed 15 mph    
Max Gust Speed 20 mph    
Visibility 8 miles    
Events Rain , Thunderstorm    
T = Trace of Precipitation, MM = Missing Value Source: NWS Daily Summary

Daily Weather History Graph

Daily Weather History Graph

Search for Another Location

Airport or City:

Trip Planner

Search our weather history database for the weather conditions in past years. The results will help you decide how hot, cold, wet, or windy it might be!

Date:

Astronomy

Aug. 30, 2013 Rise Set
Actual Time 6:54 AM EDT 8:14 PM EDT
Civil Twilight 6:23 AM EDT 8:45 PM EDT
Nautical Twilight 5:46 AM EDT 9:21 PM EDT
Astronomical Twilight 5:07 AM EDT 10:00 PM EDT
Moon 1:23 AM EDT (8/30) 4:37 PM EDT (8/30)
Length of Visible Light 14h 21m
Length of Day
13h 20m
Waning Crescent, 29% of the Moon is Illuminated
Aug 30
Waning Crescent
Sep 5
New
Sep 12
First Quarter
Sep 19
Full
Sep 26
Last Quarter

Hourly Weather History & Observations

Time (EDT) Temp. Dew Point Humidity Pressure Visibility Wind Dir Wind Speed Gust Speed Precip Events Conditions
12:54 AM 69.1 °F 66.9 °F 93% 29.96 in 9.0 mi Calm Calm - N/A   Clear
1:54 AM 70.0 °F 66.9 °F 90% 29.94 in 10.0 mi SW 3.5 mph - N/A   Clear
2:54 AM 71.1 °F 66.0 °F 84% 29.94 in 10.0 mi WSW 3.5 mph - N/A   Clear
3:54 AM 72.0 °F 64.9 °F 78% 29.93 in 10.0 mi SSW 4.6 mph - N/A   Clear
4:54 AM 73.0 °F 64.9 °F 76% 29.88 in 10.0 mi Calm Calm - N/A   Clear
5:54 AM 69.1 °F 66.0 °F 90% 29.88 in 10.0 mi South 3.5 mph - 0.00 in   Overcast
6:54 AM 73.0 °F 64.9 °F 76% 29.87 in 10.0 mi SW 4.6 mph - 0.00 in Rain Light Rain
7:54 AM 73.0 °F 66.0 °F 79% 29.83 in 10.0 mi South 8.1 mph - 0.00 in   Clear
8:54 AM 73.0 °F 66.0 °F 79% 29.83 in 10.0 mi SSW 5.8 mph - 0.00 in   Scattered Clouds
9:54 AM 77.0 °F 66.9 °F 71% 29.82 in 10.0 mi SSW 8.1 mph - N/A   Clear
10:47 AM 77.0 °F 66.2 °F 69% 29.83 in 10.0 mi WNW 3.5 mph - N/A Thunderstorm Thunderstorm
10:54 AM 75.9 °F 66.0 °F 71% 29.84 in 10.0 mi WNW 3.5 mph - 0.00 in Rain , Thunderstorm Light Thunderstorms and Rain
11:09 AM 73.4 °F 66.2 °F 78% 29.85 in 9.0 mi NW 5.8 mph - 0.00 in Rain Light Rain
11:21 AM 73.4 °F 68.0 °F 83% 29.84 in 3.0 mi Calm Calm - 0.03 in Rain , Thunderstorm Thunderstorms and Rain
11:46 AM 71.6 °F 68.0 °F 88% 29.80 in 2.0 mi South 10.4 mph - 0.11 in Rain , Thunderstorm Heavy Thunderstorms and Rain
11:54 AM 71.1 °F 68.0 °F 90% 29.81 in 5.0 mi SW 8.1 mph - 0.12 in Rain , Thunderstorm Light Thunderstorms and Rain
12:17 PM 69.8 °F 66.2 °F 88% 29.80 in 1.5 mi SSW 5.8 mph - 0.04 in Rain , Thunderstorm Light Thunderstorms and Rain
12:42 PM 69.8 °F 68.0 °F 94% 29.79 in 4.0 mi SSW 4.6 mph - 0.21 in Rain , Thunderstorm Thunderstorms and Rain
12:52 PM 69.8 °F 68.0 °F 94% 29.79 in 8.0 mi South 9.2 mph - 0.22 in   Overcast
12:54 PM 70.0 °F 68.0 °F 93% 29.78 in 8.0 mi South 9.2 mph - 0.22 in   Overcast
1:36 PM 69.8 °F 68.0 °F 94% 29.77 in 1.8 mi SW 4.6 mph - 0.03 in Rain Heavy Rain
1:54 PM 70.0 °F 68.0 °F 93% 29.77 in 1.2 mi SW 6.9 mph - 0.15 in Rain Heavy Rain
2:03 PM 69.8 °F 68.0 °F 94% 29.76 in 3.0 mi SW 5.8 mph - 0.04 in Rain , Thunderstorm Thunderstorms and Rain
2:22 PM 69.8 °F 69.8 °F 100% 29.76 in 6.0 mi SW 4.6 mph - 0.04 in   Overcast
2:54 PM 71.1 °F 69.1 °F 93% 29.76 in 7.0 mi SW 6.9 mph - 0.04 in   Overcast
3:39 PM 71.6 °F 69.8 °F 94% 29.75 in 4.0 mi Variable 4.6 mph - N/A   Overcast
3:54 PM 72.0 °F 70.0 °F 93% 29.74 in 5.0 mi Variable 4.6 mph - N/A   Overcast
4:09 PM 71.6 °F 69.8 °F 94% 29.75 in 7.0 mi West 4.6 mph - N/A   Overcast
4:42 PM 73.4 °F 71.6 °F 94% 29.74 in 7.0 mi WNW 4.6 mph - N/A   Mostly Cloudy
4:49 PM 75.2 °F 71.6 °F 89% 29.74 in 8.0 mi Variable 4.6 mph - N/A   Mostly Cloudy
4:54 PM 73.9 °F 70.0 °F 87% 29.73 in 8.0 mi WNW 4.6 mph - N/A   Mostly Cloudy
5:07 PM 75.2 °F 71.6 °F 89% 29.74 in 9.0 mi Variable 4.6 mph - N/A   Mostly Cloudy
5:54 PM 73.9 °F 70.0 °F 87% 29.74 in 10.0 mi WNW 5.8 mph - N/A   Overcast
6:14 PM 73.4 °F 69.8 °F 88% 29.76 in 6.0 mi NNW 9.2 mph - 0.00 in Rain Light Rain
6:21 PM 73.4 °F 69.8 °F 88% 29.76 in 10.0 mi NNW 8.1 mph - 0.00 in Rain Light Rain
6:54 PM 73.0 °F 69.1 °F 87% 29.76 in 10.0 mi NW 6.9 mph - 0.00 in   Overcast
7:24 PM 71.6 °F 69.8 °F 94% 29.78 in 10.0 mi NNW 9.2 mph - N/A   Overcast
7:54 PM 71.1 °F 68.0 °F 90% 29.78 in 10.0 mi NW 8.1 mph - N/A   Overcast
8:01 PM 71.6 °F 68.0 °F 88% 29.79 in 10.0 mi NNW 8.1 mph - N/A   Overcast
8:33 PM 69.8 °F 68.0 °F 94% 29.79 in 10.0 mi NNW 9.2 mph - N/A   Mostly Cloudy
8:54 PM 69.1 °F 66.0 °F 90% 29.79 in 10.0 mi North 10.4 mph - N/A   Mostly Cloudy
9:18 PM 69.8 °F 66.2 °F 88% 29.80 in 10.0 mi North 10.4 mph - N/A   Overcast
9:51 PM 69.8 °F 66.2 °F 88% 29.81 in 10.0 mi North 12.7 mph - N/A   Overcast
9:54 PM 69.1 °F 66.0 °F 90% 29.80 in 10.0 mi North 12.7 mph - N/A   Overcast
10:12 PM 69.8 °F 66.2 °F 88% 29.81 in 10.0 mi North 11.5 mph - N/A   Overcast
10:54 PM 68.0 °F 66.0 °F 93% 29.83 in 10.0 mi North 6.9 mph - N/A   Overcast
11:54 PM 68.0 °F 64.9 °F 90% 29.83 in 10.0 mi NNE 11.5 mph - N/A   Mostly Cloudy